[[{"header":{"parameterUnit":"m.s-1","parameterCategory":1,"la1":30.2991,"la2":30.254,"lo1":-89.0895,"lo2":-89.0444,"dy":0.0017,"dx":0.0017,"nx":28,"ny":28,"refTime":"2024-08-02T03:00:00:Z","depth":0,"parameterNumber":2,"parameterNumberName":"U-component_of_WINDS"},"data":[0,0,0,0,0,0,0,0,0,0,0,0,0,0,0,0,0,0,0,0,0,0,0,0,0,0,0,0,0,0,0,0,0,0,0,0,0,0,0,0,0,0,0,0,0,0,0,0,0,0,0,0,0,0,0,0,0,0,3.8477,3.8478,0,3.8599,3.8601,3.8602,3.855,3.8547,3.8544,3.8541,3.8671,3.8677,3.8683,0,0,0,0,0,0,0,0,0,0,0,0,0,3.82,3.8205,3.8476,3.8478,3.848,3.8599,3.8601,3.8603,3.8551,3.8547,3.8544,3.854,3.8669,3.8676,3.8683,0,0,0,0,0,0,0,0,0,0,0,0,0,3.8321,3.8207,3.8476,3.8468,3.8468,3.8599,3.8601,3.8603,3.8552,3.8547,3.8543,3.8538,3.8666,3.8675,3.8684,3.8831,0,0,3.8713,3.8717,0,0,0,0,0,0,0,0,3.8314,3.8331,3.8468,3.8469,3.847,3.8555,3.8551,3.868,3.8553,3.852,3.8541,3.8536,3.8636,3.8647,3.868,3.8837,3.8843,3.8714,3.8719,3.8723,3.8726,0,0,0,0,0,0,0,3.8306,3.8326,3.8525,3.847,3.8471,3.8459,3.8471,3.8575,3.8602,3.8523,3.8519,3.8534,3.8636,3.8671,3.8683,3.8844,3.8713,3.8722,3.8727,3.8731,3.9128,3.9133,0,0,0,0,0,0,3.8297,3.8319,3.8521,3.8529,3.8379,3.8468,3.8482,3.8532,3.86,3.8606,3.8538,3.8531,3.8658,3.8672,3.8687,3.8864,3.8723,3.8732,3.8737,3.9123,3.9129,3.9135,0,0,0,0,0,0,3.8291,3.8316,3.8516,3.8423,3.8448,3.8477,3.8534,3.8537,3.8573,3.8612,3.8617,3.857,3.8655,3.8674,3.8796,3.8868,3.8736,3.8745,3.9118,3.9125,3.9132,3.9218,0,0,0,0,0,0,3.8284,3.8314,3.8369,3.8425,3.8453,3.8622,3.8539,3.8542,3.8588,3.8581,3.8643,3.8649,3.8653,3.8782,3.8805,3.8878,3.8752,3.9111,3.9121,3.913,3.9209,3.9228,3.9244,0,0,0,0,0,3.8274,3.8389,3.8372,3.8397,3.8523,3.8626,3.8642,3.8644,3.8594,3.8651,3.8676,3.8647,3.8856,3.8795,3.882,3.8897,3.9107,3.9118,3.9129,3.9201,3.9224,3.9243,0,0,0,0,0,0,3.8342,3.8396,3.8378,3.8514,3.8566,3.8617,3.8688,3.8668,3.8735,3.8726,3.8725,3.874,3.8865,3.8893,3.8824,3.9043,3.8974,3.8991,3.902,3.9042,3.9059,3.905,3.876,0,0,0,0,0,3.8373,3.8452,3.8495,3.8611,3.8638,3.8659,3.8704,3.87,3.8754,3.8776,3.881,3.8864,3.8942,3.8994,3.9067,3.9213,3.9226,3.9278,3.9296,3.931,3.9324,3.9404,3.9428,3.9172,3.9171,3.9171,0,0,3.8438,3.8477,3.8527,3.8626,3.8665,3.8748,3.8677,3.8768,3.8829,3.879,3.8907,3.8934,3.8994,3.9128,3.9189,3.9155,3.9398,3.9324,3.9335,3.9342,3.9418,3.9442,3.9464,3.9179,3.9178,3.9177,0,0,3.8598,3.8635,3.8736,3.8777,3.8838,3.8851,3.8875,3.8929,3.8946,3.9062,3.9035,3.9108,3.9242,3.9287,3.9327,3.9504,3.948,3.9528,3.9619,3.9697,3.9717,3.9735,3.9799,3.9822,3.9543,3.9543,3.9543,0,3.8672,3.8794,3.8791,3.8884,3.8929,3.8896,3.8999,3.9039,3.9121,3.9153,3.9114,3.9282,3.932,3.9464,3.9508,3.9541,3.957,3.9522,3.9714,3.9732,3.9749,3.981,3.9834,3.9549,3.9548,3.9547,3.9547,0,3.8881,3.8966,3.9041,3.912,3.9173,3.927,3.9284,3.9338,3.933,3.9348,3.9467,3.9512,3.9595,3.9628,3.9622,3.9773,3.975,3.9713,3.9643,3.9779,3.9836,3.9859,3.9556,3.9554,3.9553,3.9551,0,0,3.9089,3.9165,3.9192,3.9228,3.9292,3.9358,3.9454,3.9534,3.9581,3.9639,3.972,3.9834,3.98,3.9846,3.9844,3.9912,4.005,3.9866,3.9868,3.99,4.022,4.0248,4.0275,4.0034,4.0039,4.0042,4.0215,0,3.9255,3.9422,3.9423,3.9578,3.9657,3.9627,3.9711,3.976,3.9779,3.985,3.9871,3.9952,3.99,3.9928,3.9994,4.0019,4.0115,4.0007,4.0111,4.0115,4.0098,4.0305,4.0335,4.0496,4.0237,4.0241,4.0244,0,3.947,3.9534,3.9696,3.9749,3.9782,3.9858,3.9931,3.9999,4.0054,4.0063,4.0114,4.0102,4.0201,4.0128,4.0265,4.0192,4.0234,4.0254,4.026,4.027,4.0188,4.0322,4.0547,4.0572,4.0279,4.0276,4.0274,0,3.9607,3.9733,3.9846,3.9878,3.9942,3.9996,4.0025,4.0076,4.0124,4.0188,4.0219,4.0295,4.0337,4.0396,4.0405,4.0351,4.0543,4.047,4.0555,4.0555,4.0597,4.0594,4.0833,4.0623,4.0623,4.0623,4.0622,0,3.9792,3.9893,3.9908,3.9979,4.0091,4.0091,4.0203,4.0228,4.0273,4.0348,4.0327,4.0398,4.0405,4.0479,4.0487,4.06,4.0619,4.063,4.0631,4.0632,4.0631,4.0661,4.065,4.0629,4.0628,4.0626,4.0625,0,3.9964,3.9978,4.01,4.015,4.0165,4.0246,4.029,4.0357,4.0373,4.0469,4.0491,4.0518,4.0604,4.0618,4.072,4.0725,4.086,4.0849,4.0841,4.084,4.0924,4.0916,4.1191,4.1227,4.0993,4.0995,4.0997,0,4.0081,4.0158,4.0217,4.0265,4.0297,4.0375,4.0423,4.0427,4.0478,4.0547,4.0607,4.069,4.0757,4.0895,4.0924,4.1002,4.0993,4.1084,4.1005,4.1004,4.0996,4.0991,4.1,4.11,4.1102,4.1104,4.1106,0,4.029,4.0293,4.0363,4.0436,4.0494,4.0552,4.0607,4.0648,4.0659,4.0718,4.0805,4.0857,4.0959,4.1043,4.112,4.1151,4.1132,4.1131,4.1154,4.1157,4.115,4.1156,4.0884,4.1125,4.1123,4.1121,4.112,4.112,4.0439,4.0506,4.0557,4.0636,4.0677,4.0729,4.0795,4.0819,4.0891,4.0974,4.0972,4.1068,4.1122,4.1223,4.1259,4.1335,4.1306,4.134,4.1349,4.1357,4.1366,4.1137,4.1349,4.1348,4.1348,4.1347,4.1347,0,4.0646,4.0678,4.075,4.0827,4.089,4.0864,4.0923,4.0978,4.1061,4.1113,4.1178,4.1279,4.1359,4.1395,4.1474,4.1528,4.1521,4.1549,4.1546,4.1553,4.1387,4.1358,4.1553,4.1553,4.1553,4.1553,4.1553,4.1553,4.0762,4.0874,4.0883,4.1016,4.1046,4.1139,4.1175,4.1223,4.1264,4.1376,4.1443,4.1465,4.151,4.1593,4.1666,4.1674,4.1705,4.1738,4.1742,4.1586,4.1565,4.1545,4.1519,4.1744,4.1744,4.1903,4.1904,4.1905]},{"header":{"parameterUnit":"m.s-1","parameterCategory":1,"la1":30.2991,"la2":30.254,"lo1":-89.0895,"lo2":-89.0444,"dy":0.0017,"dx":0.0017,"nx":28,"ny":28,"refTime":"2024-08-02T03:00:00:Z","depth":0,"parameterNumber":3,"parameterNumberName":"V-component_of_WINDS"},"data":[0,0,0,0,0,0,0,0,0,0,0,0,0,0,0,0,0,0,0,0,0,0,0,0,0,0,0,0,0,0,0,0,0,0,0,0,0,0,0,0,0,0,0,0,0,0,0,0,0,0,0,0,0,0,0,0,0,0,-0.1519,-0.1519,0,-0.1533,-0.1534,-0.1534,-0.1533,-0.1533,-0.1532,-0.1532,-0.1546,-0.1547,-0.1547,0,0,0,0,0,0,0,0,0,0,0,0,0,-0.149,-0.149,-0.1519,-0.1519,-0.1519,-0.1533,-0.1534,-0.1534,-0.1533,-0.1533,-0.1532,-0.1532,-0.1546,-0.1546,-0.1547,0,0,0,0,0,0,0,0,0,0,0,0,0,-0.1503,-0.149,-0.1519,-0.1521,-0.1521,-0.1533,-0.1534,-0.1534,-0.1533,-0.1533,-0.1532,-0.1532,-0.1546,-0.1546,-0.1547,-0.1559,0,0,-0.155,-0.155,0,0,0,0,0,0,0,0,-0.1502,-0.1504,-0.152,-0.152,-0.1521,-0.1531,-0.1528,-0.1542,-0.1533,-0.1528,-0.1532,-0.1532,-0.1541,-0.1542,-0.1546,-0.1559,-0.156,-0.155,-0.155,-0.1551,-0.1551,0,0,0,0,0,0,0,-0.1501,-0.1504,-0.1525,-0.152,-0.1521,-0.152,-0.1522,-0.1531,-0.1536,-0.1529,-0.1529,-0.153,-0.1541,-0.1545,-0.1546,-0.156,-0.155,-0.1551,-0.1551,-0.1551,-0.1584,-0.1584,0,0,0,0,0,0,-0.15,-0.1503,-0.1524,-0.1525,-0.1511,-0.1521,-0.1523,-0.1528,-0.1536,-0.1537,-0.1531,-0.153,-0.1544,-0.1545,-0.1547,-0.1561,-0.1551,-0.1552,-0.1552,-0.1583,-0.1584,-0.1584,0,0,0,0,0,0,-0.15,-0.1502,-0.1524,-0.1514,-0.1517,-0.1522,-0.1528,-0.1528,-0.1532,-0.1538,-0.1539,-0.1533,-0.1543,-0.1545,-0.1556,-0.1561,-0.1552,-0.1553,-0.1583,-0.1584,-0.1584,-0.1588,0,0,0,0,0,0,-0.1499,-0.1502,-0.1506,-0.1514,-0.1517,-0.1533,-0.1528,-0.1529,-0.1534,-0.1533,-0.1541,-0.1541,-0.1543,-0.1555,-0.1557,-0.1562,-0.1553,-0.1583,-0.1583,-0.1584,-0.1588,-0.1589,-0.159,0,0,0,0,0,-0.1498,-0.1507,-0.1507,-0.1509,-0.1523,-0.1533,-0.1535,-0.1537,-0.1534,-0.1539,-0.1542,-0.1541,-0.156,-0.1556,-0.1558,-0.1564,-0.1582,-0.1583,-0.1584,-0.1587,-0.1589,-0.159,0,0,0,0,0,0,-0.1499,-0.1508,-0.1508,-0.152,-0.1526,-0.1533,-0.1539,-0.1539,-0.1545,-0.1545,-0.1547,-0.1549,-0.1559,-0.1562,-0.1557,-0.1575,-0.1571,-0.1572,-0.1573,-0.1574,-0.1575,-0.1574,-0.1554,0,0,0,0,0,-0.1501,-0.1509,-0.1516,-0.1525,-0.1528,-0.1533,-0.1537,-0.1539,-0.1545,-0.1548,-0.1552,-0.1558,-0.1565,-0.157,-0.1577,-0.1588,-0.159,-0.1594,-0.1595,-0.1596,-0.1597,-0.1603,-0.1605,-0.1587,-0.1587,-0.1587,0,0,-0.1504,-0.151,-0.1515,-0.1526,-0.1531,-0.1538,-0.1535,-0.1543,-0.1549,-0.1549,-0.1559,-0.1562,-0.1569,-0.158,-0.1585,-0.1583,-0.1602,-0.1597,-0.1597,-0.1598,-0.1604,-0.1606,-0.1607,-0.1587,-0.1587,-0.1587,0,0,-0.1515,-0.152,-0.1529,-0.1534,-0.1541,-0.1545,-0.1547,-0.1554,-0.1557,-0.1567,-0.1567,-0.1574,-0.1586,-0.1591,-0.1595,-0.1608,-0.1607,-0.161,-0.1616,-0.1622,-0.1624,-0.1625,-0.163,-0.1631,-0.1611,-0.1611,-0.1611,0,-0.1518,-0.153,-0.1533,-0.1542,-0.1547,-0.1547,-0.1556,-0.1561,-0.157,-0.1573,-0.1571,-0.1587,-0.1591,-0.1604,-0.1607,-0.161,-0.1613,-0.1609,-0.1623,-0.1625,-0.1626,-0.163,-0.1632,-0.1611,-0.1611,-0.1611,-0.1611,0,-0.1534,-0.1542,-0.1548,-0.1558,-0.1564,-0.1572,-0.1576,-0.1582,-0.1583,-0.1586,-0.1597,-0.1602,-0.161,-0.1614,-0.1614,-0.1626,-0.1625,-0.1623,-0.1618,-0.1628,-0.1632,-0.1634,-0.1612,-0.1612,-0.1612,-0.1612,0,0,-0.1545,-0.1557,-0.1559,-0.1564,-0.1572,-0.1579,-0.1587,-0.1596,-0.16,-0.1607,-0.1614,-0.1625,-0.1624,-0.1628,-0.163,-0.1635,-0.1646,-0.1633,-0.1633,-0.1635,-0.1659,-0.166,-0.1662,-0.1645,-0.1646,-0.1646,-0.1659,0,-0.1557,-0.1572,-0.1576,-0.1589,-0.1597,-0.1598,-0.1605,-0.1612,-0.1615,-0.1622,-0.1625,-0.1633,-0.1631,-0.1634,-0.1639,-0.1643,-0.165,-0.1642,-0.1652,-0.1652,-0.165,-0.1665,-0.1666,-0.1678,-0.166,-0.1661,-0.1661,0,-0.1572,-0.1579,-0.1594,-0.1602,-0.1605,-0.1612,-0.1621,-0.1627,-0.1634,-0.1636,-0.1642,-0.1643,-0.1652,-0.1647,-0.166,-0.1654,-0.1658,-0.1661,-0.1661,-0.1662,-0.1657,-0.1666,-0.1682,-0.1683,-0.1663,-0.1663,-0.1663,0,-0.1579,-0.1592,-0.1603,-0.1607,-0.1617,-0.1621,-0.1625,-0.1632,-0.1637,-0.1644,-0.1648,-0.1656,-0.166,-0.1666,-0.1669,-0.1666,-0.1682,-0.1677,-0.1683,-0.1683,-0.1687,-0.1686,-0.1703,-0.1689,-0.1689,-0.1689,-0.1689,0,-0.1591,-0.16,-0.1606,-0.1613,-0.1623,-0.1626,-0.1636,-0.164,-0.1646,-0.1654,-0.1655,-0.1661,-0.1665,-0.1672,-0.1675,-0.1685,-0.1687,-0.1688,-0.1689,-0.1688,-0.1688,-0.1691,-0.169,-0.169,-0.169,-0.169,-0.1689,0,-0.16,-0.1605,-0.1617,-0.1625,-0.1627,-0.1635,-0.1642,-0.1648,-0.1651,-0.1661,-0.1663,-0.1668,-0.1677,-0.1681,-0.1691,-0.1693,-0.1705,-0.1704,-0.1702,-0.1703,-0.1709,-0.1708,-0.1728,-0.1731,-0.1715,-0.1715,-0.1715,0,-0.1608,-0.1615,-0.1624,-0.163,-0.1634,-0.1642,-0.1648,-0.1651,-0.1657,-0.1666,-0.1671,-0.168,-0.1687,-0.17,-0.1705,-0.1713,-0.1714,-0.172,-0.1715,-0.1714,-0.1714,-0.1713,-0.1714,-0.1721,-0.1721,-0.1721,-0.1721,0,-0.1621,-0.1623,-0.1631,-0.164,-0.1646,-0.1653,-0.166,-0.1664,-0.1669,-0.1675,-0.1684,-0.169,-0.1701,-0.171,-0.1718,-0.1722,-0.1723,-0.1723,-0.1725,-0.1724,-0.1723,-0.1724,-0.1705,-0.1722,-0.1722,-0.1722,-0.1722,-0.1722,-0.163,-0.1636,-0.1644,-0.1653,-0.1659,-0.1665,-0.1672,-0.1676,-0.1684,-0.1694,-0.1695,-0.1705,-0.1712,-0.1724,-0.1728,-0.1736,-0.1734,-0.1737,-0.1737,-0.1738,-0.1739,-0.1722,-0.1737,-0.1737,-0.1737,-0.1737,-0.1737,0,-0.1643,-0.1648,-0.1656,-0.1666,-0.1673,-0.1673,-0.1681,-0.1687,-0.1696,-0.1702,-0.171,-0.172,-0.1729,-0.1734,-0.1743,-0.1748,-0.1748,-0.175,-0.175,-0.1751,-0.1739,-0.1737,-0.175,-0.175,-0.175,-0.175,-0.175,-0.175,-0.1651,-0.1662,-0.1665,-0.1679,-0.1684,-0.1694,-0.1698,-0.1704,-0.171,-0.1722,-0.1729,-0.1733,-0.1739,-0.1748,-0.1756,-0.1758,-0.1761,-0.1763,-0.1764,-0.1753,-0.1752,-0.175,-0.1748,-0.1763,-0.1763,-0.1775,-0.1775,-0.1775]}]]